Location: Newark
(50.4348°N, 30.5552°E)
Time: 11:22:41
(UTC+00:00)

Vanguard 1 - Visible Passes

Search period start: 25 January 2020 00:00
Search period end: 04 February 2020 00:00
Orbit: 651 x 3833 km, 34.2° (Epoch: 24 January)

Date Brightness Start Highest point End Pass type
(mag) Time Alt. Az. Time Alt. Az. Time Alt. Az.
25 Jan 11.8 15:23:08 10° S 15:24:17 11° SSE 15:25:30 10° SSE visible
25 Jan 11.9 17:40:20 10° SW 17:43:18 15° S 17:43:21 15° S visible
26 Jan 11.8 15:43:02 10° SSW 15:44:50 12° S 15:46:47 10° SSE visible
26 Jan 12.1 18:01:30 10° SSW 18:03:16 13° SSW 18:03:16 13° SSW visible
27 Jan 11.8 16:03:28 10° SSW 16:05:25 12° S 16:07:33 10° SSE visible
28 Jan 11.9 16:24:15 10° SSW 16:26:01 12° S 16:27:57 10° SSE visible
29 Jan 12.0 16:45:37 10° SSW 16:46:38 11° S 16:47:42 10° S visible
